Regional Weather Roundup
Issued by NWS

Home | Current Version | Previous Version | Text Only | Print | Product List | Glossary Off
Versions: 1 2 3 4 5 6 7 8 9 10 11 12 13 14 15 16 17 18 19 20 21 22 23 24 25 26 27 28 29 30 31 32 33 34 35 36 37 38 39 40 41 42 43 44 45 46 47 48 49 50

000
ASUS43 KLMK 012310
RWRKY
KENTUCKY REGIONAL WEATHER ROUNDUP
NATIONAL WEATHER SERVICE LOUISVILLE KY
700 PM EDT MON JUN 01 2015

NOTE "FAIR" INDICATES FEW OR NO CLOUDS BELOW 12,000 FEET
WITH NO SIGNIFICANT WEATHER AND/OR OBSTRUCTIONS TO VISIBILITY.

KYZ001>023-026-027-061>063-070>075-020000-
WESTERN AND SOUTH CENTRAL KENTUCKY

CITY           SKY/WX    TMP DP  RH WIND       PRES   REMARKS
PADUCAH        CLOUDY    66  57  72 N8        30.07F
HENDERSON      CLOUDY    63  54  72 N7        30.08S
OWENSBORO      CLOUDY    62  56  81 NE9       30.09F
HOPKINSVILLE   CLOUDY    64  61  88 N9        30.06S
BOWLING GREEN  CLOUDY    65  59  81 VRB3      30.06S
GLASGOW        CLOUDY    62  58  86 N5        30.07R
$$

KYZ024-025-028>034-038-045-046-053-020000-
NORTH CENTRAL KENTUCKY

CITY           SKY/WX    TMP DP  RH WIND       PRES   REMARKS
LOUISVILLE/SDF CLOUDY    61  53  75 NE13      30.09S
LOUISVILLE/LOU CLOUDY    60  53  77 NE6       30.10S
FORT KNOX      CLOUDY    60  55  84 N6        30.07S
$$

KYZ035>037-039>044-047>052-055>060-089>105-020000-
NORTHEAST KENTUCKY

CITY           SKY/WX    TMP DP  RH WIND       PRES   REMARKS
LEXINGTON      CLOUDY    57  54  89 NE9       30.09S
COVINGTON      CLOUDY    58  52  80 NE8       30.11S
FRANKFORT      CLOUDY    57  52  83 NE7       30.09S
$$

KYZ054-064>069-076>088-106>120-020000-
SOUTHEAST KENTUCKY

CITY           SKY/WX    TMP DP  RH WIND       PRES   REMARKS
JACKSON        CLOUDY    58  55  90 VRB5      30.09R
LONDON         CLOUDY    64  57  78 NE8       30.06F
SOMERSET       CLOUDY    61  59  94 NE9       30.07S
MIDDLESBORO    CLOUDY    70  66  88 N5        30.05R
MONTICELLO     CLOUDY    65  65 100 NE6       30.08R
$$




USA.gov is the U.S. government's official web portal to all federal, state and local government web resources and services.